Flag for U.S.A. Weather past 2 weeks in Grand Junction, Colorado, U.S.A.

Now
92 °F

Sunny.


Feels Like: 88 °F
Forecast: 59 / 93 °F
Wind: 12 mph from West

Location: Walker Field

Current Time: Jul 30, 2015 at 3:24:47 PM

Latest Report: Jul 30, 2015 at 2:53 PM


Visibility: 10 mi

Pressure: 30.01 "Hg (25.68 "Hg at 1398m altitude)

Humidity: 14%

Dew point: 36 °F

Location of Grand JunctionLocation

Historic Weather in Grand Junction — Graph

°F

Grand Junction temperature yesterday

Maximum temperature yesterday: 91 °F (at 3:53 PM)
Minimum temperature yesterday: 58 °F (at 6:53 AM)
Average temperature yesterday: 75 °F

Past Weeks' High & Low Weather Summary

 TemperatureHumidityPressure
High95 °F (Jul 27, 3:53 PM)96% (Jul 21, 9:53 AM)30.14 "Hg (Jul 21, 9:53 AM)
Low54 °F (Jul 28, 4:53 AM)8% (Jul 27, 5:53 PM)29.62 "Hg (Jul 27, 3:53 PM)
Average74 °F40%29.89 "Hg
* Reported Jul 15 1:53 PM — Jul 30 1:53 PM, Grand Junction, Weather by CustomWeather, © 2015

Note: Actual official high and low records may vary slightly from our data, if they occured in-between our weather recording intervals... More about our weather records

Advertising

Grand Junction weather history for previous 24 hours

 ConditionsComfort  
Time TempWeatherWind HumidityBarometerVisibility
1:53 PM
Thu, Jul 30
89 °FSunny.8 mph15%30.04 "Hg10 mi
12:53 PM87 °FSunny.8 mph17%30.06 "Hg10 mi
11:53 AM83 °FSunny.5 mph17%30.09 "Hg10 mi
10:53 AM81 °FSunny.7 mph18%30.09 "Hg10 mi
9:53 AM76 °FSunny.7 mph19%30.11 "Hg10 mi
8:53 AM73 °FSunny.10 mph23%30.13 "Hg10 mi
7:53 AM68 °FSunny.12 mph24%30.09 "Hg10 mi
6:53 AM59 °FClear.6 mph35%30.09 "Hg10 mi
5:53 AM60 °FClear.5 mph30%30.07 "Hg10 mi
4:53 AM61 °FClear.9 mph30%30.05 "Hg10 mi
3:53 AM65 °FClear.No wind24%30.03 "Hg10 mi
2:53 AM65 °FClear.3 mph25%30.03 "Hg10 mi
1:53 AM66 °FClear.5 mph24%30.01 "Hg10 mi
12:53 AM66 °FClear.No wind25%30.01 "Hg10 mi
11:53 PM
Wed, Jul 29
71 °FClear.5 mph25%29.99 "Hg10 mi
10:53 PM72 °FClear.6 mph19%29.99 "Hg10 mi
9:53 PM75 °FClear.7 mph15%29.98 "Hg10 mi
8:53 PM74 °FSunny.3 mph17%29.96 "Hg10 mi
7:53 PM87 °FSunny.No wind10%29.94 "Hg10 mi
6:53 PM88 °FSunny.6 mph10%29.94 "Hg10 mi
5:53 PM90 °FSunny.6 mph9%29.93 "Hg10 mi
4:53 PM89 °FSunny.5 mph9%29.95 "Hg10 mi
3:53 PM91 °FSunny.10 mph9%29.96 "Hg10 mi
Weather by CustomWeather, © 2015

See weather overviewHow to use our weather pages